Time,TemperatureF,DewpointF,PressureIn,WindDirection,WindDirectionDegrees,WindSpeedMPH,WindSpeedGustMPH,Humidity,HourlyPrecipIn,Conditions,Clouds,dailyrainin,SoftwareType,DateUTC
2013-12-19 00:01:00,27.9,21.0,28.80,SSW,202,7.0,11.0,76,0.00,,,0.00,Rainwise IP-100,2013-12-19 05:01:00,
2013-12-19 00:02:00,27.9,21.0,28.80,SW,225,5.0,11.0,76,0.00,,,0.00,Rainwise IP-100,2013-12-19 05:02:00,
2013-12-19 00:05:00,27.9,21.0,28.80,SSW,202,7.0,12.0,76,0.00,,,0.00,Rainwise IP-100,2013-12-19 05:05:00,
2013-12-19 00:06:00,27.9,21.0,28.80,SW,225,6.0,12.0,76,0.00,,,0.00,Rainwise IP-100,2013-12-19 05:06:00,
2013-12-19 00:10:00,27.9,21.0,28.79,SW,225,6.0,12.0,76,0.00,,,0.00,Rainwise IP-100,2013-12-19 05:10:00,
2013-12-19 00:15:00,27.8,21.0,28.79,South,180,5.0,9.0,76,0.00,,,0.00,Rainwise IP-100,2013-12-19 05:15:00,
2013-12-19 00:20:00,27.7,21.0,28.79,SW,225,5.0,11.0,76,0.00,,,0.00,Rainwise IP-100,2013-12-19 05:20:00,
2013-12-19 00:25:00,27.7,21.0,28.78,SSW,202,6.0,11.0,76,0.00,,,0.00,Rainwise IP-100,2013-12-19 05:25:00,
2013-12-19 00:30:00,27.6,21.0,28.78,South,180,5.0,10.0,76,0.00,,,0.00,Rainwise IP-100,2013-12-19 05:30:00,
2013-12-19 00:35:00,27.5,21.0,28.78,SSW,202,7.0,10.0,76,0.00,,,0.00,Rainwise IP-100,2013-12-19 05:35:00,
2013-12-19 00:40:00,27.5,21.0,28.77,South,180,4.0,11.0,76,0.00,,,0.00,Rainwise IP-100,2013-12-19 05:40:00,
2013-12-19 00:45:00,27.4,21.0,28.76,SSW,202,2.0,10.0,76,0.00,,,0.00,Rainwise IP-100,2013-12-19 05:45:00,
2013-12-19 00:51:00,27.4,21.0,28.76,SSW,202,6.0,10.0,76,0.00,,,0.00,Rainwise IP-100,2013-12-19 05:51:00,
2013-12-19 00:56:00,27.4,21.0,28.76,South,180,7.0,11.0,76,0.00,,,0.00,Rainwise IP-100,2013-12-19 05:56:00,
2013-12-19 01:01:00,27.3,21.0,28.75,South,180,8.0,10.0,76,0.00,,,0.00,Rainwise IP-100,2013-12-19 06:01:00,
2013-12-19 01:06:00,27.4,21.0,28.75,SSW,202,4.0,10.0,76,0.00,,,0.00,Rainwise IP-100,2013-12-19 06:06:00,
2013-12-19 01:11:00,27.4,21.0,28.75,SSW,202,6.0,9.0,76,0.00,,,0.00,Rainwise IP-100,2013-12-19 06:11:00,
2013-12-19 01:16:00,27.4,21.0,28.74,South,180,10.0,14.0,75,0.00,,,0.00,Rainwise IP-100,2013-12-19 06:16:00,
2013-12-19 01:21:00,27.5,21.0,28.74,South,180,7.0,12.0,75,0.00,,,0.00,Rainwise IP-100,2013-12-19 06:21:00,
2013-12-19 01:26:00,27.5,21.0,28.73,South,180,7.0,14.0,75,0.00,,,0.00,Rainwise IP-100,2013-12-19 06:26:00,
2013-12-19 01:31:00,27.5,21.0,28.73,South,180,4.0,12.0,75,0.00,,,0.00,Rainwise IP-100,2013-12-19 06:31:00,
2013-12-19 01:36:00,27.4,21.0,28.73,South,180,6.0,9.0,76,0.00,,,0.00,Rainwise IP-100,2013-12-19 06:36:00,
2013-12-19 01:41:00,27.3,21.0,28.72,SSE,157,5.0,8.0,76,0.00,,,0.00,Rainwise IP-100,2013-12-19 06:41:00,
2013-12-19 01:46:00,27.2,23.0,28.72,South,180,4.0,9.0,78,0.00,,,0.00,Rainwise IP-100,2013-12-19 06:46:00,
2013-12-19 01:52:00,27.1,23.0,28.72,SSE,157,4.0,7.0,78,0.00,,,0.00,Rainwise IP-100,2013-12-19 06:52:00,
2013-12-19 01:57:00,27.1,23.0,28.71,South,180,6.0,9.0,77,0.00,,,0.00,Rainwise IP-100,2013-12-19 06:57:00,
2013-12-19 02:02:00,27.1,23.0,28.70,SSE,157,3.0,9.0,77,0.00,,,0.00,Rainwise IP-100,2013-12-19 07:02:00,
2013-12-19 02:07:00,27.1,23.0,28.70,South,180,4.0,9.0,77,0.00,,,0.00,Rainwise IP-100,2013-12-19 07:07:00,
2013-12-19 02:12:00,27.1,21.0,28.70,SSE,157,6.0,9.0,76,0.00,,,0.00,Rainwise IP-100,2013-12-19 07:12:00,
2013-12-19 02:17:00,27.1,21.0,28.70,SSE,157,4.0,7.0,76,0.00,,,0.00,Rainwise IP-100,2013-12-19 07:17:00,
2013-12-19 02:22:00,27.1,21.0,28.70,South,180,4.0,8.0,75,0.00,,,0.00,Rainwise IP-100,2013-12-19 07:22:00,
2013-12-19 02:27:00,27.1,21.0,28.70,South,180,6.0,9.0,74,0.00,,,0.00,Rainwise IP-100,2013-12-19 07:27:00,
2013-12-19 02:32:00,27.1,21.0,28.70,South,180,8.0,13.0,74,0.00,,,0.00,Rainwise IP-100,2013-12-19 07:32:00,
2013-12-19 02:37:00,26.9,21.0,28.70,South,180,6.0,9.0,73,0.00,,,0.00,Rainwise IP-100,2013-12-19 07:37:00,
2013-12-19 02:42:00,26.9,21.0,28.69,South,180,6.0,8.0,73,0.00,,,0.00,Rainwise IP-100,2013-12-19 07:42:00,
2013-12-19 02:47:00,26.9,21.0,28.69,SSW,202,6.0,10.0,72,0.00,,,0.00,Rainwise IP-100,2013-12-19 07:47:00,
2013-12-19 02:53:00,26.8,21.0,28.69,South,180,8.0,9.0,72,0.00,,,0.00,Rainwise IP-100,2013-12-19 07:53:00,
2013-12-19 02:58:00,26.8,21.0,28.69,South,180,7.0,9.0,72,0.00,,,0.00,Rainwise IP-100,2013-12-19 07:58:00,
2013-12-19 03:03:00,26.9,21.0,28.69,South,180,6.0,11.0,71,0.00,,,0.00,Rainwise IP-100,2013-12-19 08:03:00,
2013-12-19 03:08:00,27.0,21.0,28.69,South,180,6.0,10.0,71,0.00,,,0.00,Rainwise IP-100,2013-12-19 08:08:00,
2013-12-19 03:13:00,27.2,21.0,28.68,SSW,202,6.0,9.0,70,0.00,,,0.00,Rainwise IP-100,2013-12-19 08:13:00,
2013-12-19 03:18:00,27.3,18.0,28.69,SSW,202,6.0,10.0,69,0.00,,,0.00,Rainwise IP-100,2013-12-19 08:18:00,
2013-12-19 03:23:00,27.5,18.0,28.68,South,180,4.0,9.0,69,0.00,,,0.00,Rainwise IP-100,2013-12-19 08:23:00,
2013-12-19 03:28:00,27.5,18.0,28.68,South,180,4.0,10.0,69,0.00,,,0.00,Rainwise IP-100,2013-12-19 08:28:00,
2013-12-19 03:33:00,27.8,18.0,28.68,South,180,6.0,12.0,69,0.00,,,0.00,Rainwise IP-100,2013-12-19 08:33:00,
2013-12-19 03:38:00,27.9,18.0,28.68,SSW,202,7.0,10.0,68,0.00,,,0.00,Rainwise IP-100,2013-12-19 08:38:00,
2013-12-19 03:43:00,27.9,18.0,28.68,SSW,202,7.0,9.0,68,0.00,,,0.00,Rainwise IP-100,2013-12-19 08:43:00,
2013-12-19 03:48:00,28.1,18.0,28.68,South,180,9.0,12.0,68,0.00,,,0.00,Rainwise IP-100,2013-12-19 08:48:00,
2013-12-19 03:54:00,28.2,18.0,28.68,South,180,6.0,11.0,68,0.00,,,0.00,Rainwise IP-100,2013-12-19 08:54:00,
2013-12-19 03:59:00,28.2,18.0,28.67,SSW,202,7.0,12.0,68,0.00,,,0.00,Rainwise IP-100,2013-12-19 08:59:00,
2013-12-19 04:04:00,28.3,18.0,28.67,South,180,6.0,11.0,67,0.00,,,0.00,Rainwise IP-100,2013-12-19 09:04:00,
2013-12-19 04:09:00,28.5,21.0,28.66,South,180,7.0,13.0,67,0.00,,,0.00,Rainwise IP-100,2013-12-19 09:09:00,
2013-12-19 04:14:00,28.7,21.0,28.66,SSW,202,8.0,12.0,67,0.00,,,0.00,Rainwise IP-100,2013-12-19 09:14:00,
2013-12-19 04:19:00,28.9,21.0,28.66,SW,225,9.0,14.0,67,0.00,,,0.00,Rainwise IP-100,2013-12-19 09:19:00,
2013-12-19 04:24:00,28.9,21.0,28.66,SSW,202,6.0,12.0,66,0.00,,,0.00,Rainwise IP-100,2013-12-19 09:24:00,
2013-12-19 04:29:00,28.9,21.0,28.66,South,180,5.0,15.0,66,0.00,,,0.00,Rainwise IP-100,2013-12-19 09:29:00,
2013-12-19 04:34:00,29.1,21.0,28.66,SSW,202,7.0,11.0,66,0.00,,,0.00,Rainwise IP-100,2013-12-19 09:34:00,
2013-12-19 04:39:00,29.2,21.0,28.66,South,180,7.0,11.0,66,0.00,,,0.00,Rainwise IP-100,2013-12-19 09:39:00,
2013-12-19 04:44:00,29.4,21.0,28.66,SSW,202,9.0,11.0,66,0.00,,,0.00,Rainwise IP-100,2013-12-19 09:44:00,
2013-12-19 04:49:00,29.4,21.0,28.66,SSW,202,6.0,14.0,66,0.00,,,0.00,Rainwise IP-100,2013-12-19 09:49:00,
2013-12-19 04:55:00,29.4,21.0,28.66,SSW,202,10.0,12.0,66,0.00,,,0.00,Rainwise IP-100,2013-12-19 09:55:00,
2013-12-19 05:00:00,29.7,21.0,28.66,SW,225,5.0,14.0,65,0.00,,,0.00,Rainwise IP-100,2013-12-19 10:00:00,
2013-12-19 05:05:00,29.6,21.0,28.66,SSW,202,6.0,12.0,66,0.00,,,0.00,Rainwise IP-100,2013-12-19 10:05:00,
2013-12-19 05:10:00,29.7,21.0,28.66,SW,225,9.0,14.0,66,0.00,,,0.00,Rainwise IP-100,2013-12-19 10:10:00,
2013-12-19 05:15:00,29.9,21.0,28.66,SW,225,5.0,12.0,66,0.00,,,0.00,Rainwise IP-100,2013-12-19 10:15:00,
2013-12-19 05:20:00,29.9,21.0,28.66,SSW,202,7.0,15.0,65,0.00,,,0.00,Rainwise IP-100,2013-12-19 10:20:00,
2013-12-19 05:25:00,30.0,21.0,28.66,SSW,202,4.0,12.0,66,0.00,,,0.00,Rainwise IP-100,2013-12-19 10:25:00,
2013-12-19 05:30:00,30.1,21.0,28.66,SW,225,7.0,11.0,66,0.00,,,0.00,Rainwise IP-100,2013-12-19 10:30:00,
2013-12-19 05:35:00,30.3,21.0,28.66,SW,225,7.0,12.0,66,0.00,,,0.00,Rainwise IP-100,2013-12-19 10:35:00,
2013-12-19 05:40:00,30.5,21.0,28.66,SW,225,6.0,11.0,65,0.00,,,0.00,Rainwise IP-100,2013-12-19 10:40:00,
2013-12-19 05:45:00,30.5,21.0,28.66,SSW,202,8.0,11.0,66,0.00,,,0.00,Rainwise IP-100,2013-12-19 10:45:00,
2013-12-19 05:50:00,30.7,21.0,28.66,SSW,202,8.0,14.0,66,0.00,,,0.00,Rainwise IP-100,2013-12-19 10:50:00,
2013-12-19 05:56:00,30.8,21.0,28.66,SSW,202,8.0,12.0,66,0.00,,,0.00,Rainwise IP-100,2013-12-19 10:56:00,
2013-12-19 06:01:00,30.9,21.0,28.66,SSW,202,8.0,9.0,66,0.00,,,0.00,Rainwise IP-100,2013-12-19 11:01:00,
2013-12-19 06:06:00,30.9,21.0,28.66,SSW,202,5.0,10.0,66,0.00,,,0.00,Rainwise IP-100,2013-12-19 11:06:00,
2013-12-19 06:11:00,31.2,21.0,28.66,SSW,202,9.0,14.0,66,0.00,,,0.00,Rainwise IP-100,2013-12-19 11:11:00,
2013-12-19 06:16:00,31.4,21.0,28.66,SW,225,4.0,14.0,66,0.00,,,0.00,Rainwise IP-100,2013-12-19 11:16:00,
2013-12-19 06:21:00,31.5,23.0,28.66,SSW,202,6.0,13.0,66,0.00,,,0.00,Rainwise IP-100,2013-12-19 11:21:00,
2013-12-19 06:26:00,31.8,23.0,28.66,SSW,202,9.0,15.0,65,0.00,,,0.00,Rainwise IP-100,2013-12-19 11:26:00,
2013-12-19 06:31:00,32.0,23.0,28.67,SW,225,8.0,11.0,65,0.00,,,0.00,Rainwise IP-100,2013-12-19 11:31:00,
2013-12-19 06:36:00,32.3,23.0,28.67,SSW,202,2.0,13.0,65,0.00,,,0.00,Rainwise IP-100,2013-12-19 11:36:00,
2013-12-19 06:41:00,32.4,23.0,28.67,SW,225,9.0,15.0,65,0.00,,,0.00,Rainwise IP-100,2013-12-19 11:41:00,
2013-12-19 06:46:00,32.6,23.0,28.67,SW,225,7.0,14.0,65,0.00,,,0.00,Rainwise IP-100,2013-12-19 11:46:00,
2013-12-19 06:51:00,32.5,24.0,28.67,SW,225,4.0,13.0,66,0.00,,,0.00,Rainwise IP-100,2013-12-19 11:51:00,
2013-12-19 06:57:00,32.5,24.0,28.67,SW,225,11.0,11.0,66,0.00,,,0.00,Rainwise IP-100,2013-12-19 11:57:00,
2013-12-19 07:02:00,32.4,23.0,28.68,SSW,202,6.0,11.0,66,0.00,,,0.00,Rainwise IP-100,2013-12-19 12:02:00,
2013-12-19 07:07:00,32.4,23.0,28.68,SSW,202,4.0,11.0,67,0.00,,,0.00,Rainwise IP-100,2013-12-19 12:07:00,
2013-12-19 07:12:00,32.5,24.0,28.67,SW,225,4.0,12.0,67,0.00,,,0.00,Rainwise IP-100,2013-12-19 12:12:00,
2013-12-19 07:17:00,32.4,23.0,28.68,SSW,202,6.0,15.0,67,0.00,,,0.00,Rainwise IP-100,2013-12-19 12:17:00,
2013-12-19 07:22:00,32.4,23.0,28.68,SW,225,5.0,12.0,67,0.00,,,0.00,Rainwise IP-100,2013-12-19 12:22:00,
2013-12-19 07:27:00,32.3,23.0,28.68,SW,225,3.0,12.0,68,0.00,,,0.00,Rainwise IP-100,2013-12-19 12:27:00,
2013-12-19 07:32:00,32.4,23.0,28.68,SSW,202,5.0,9.0,68,0.00,,,0.00,Rainwise IP-100,2013-12-19 12:32:00,
2013-12-19 07:37:00,32.2,23.0,28.68,SSW,202,11.0,11.0,69,0.00,,,0.00,Rainwise IP-100,2013-12-19 12:37:00,
2013-12-19 07:42:00,32.6,24.0,28.68,SW,225,7.0,15.0,69,0.00,,,0.00,Rainwise IP-100,2013-12-19 12:42:00,
2013-12-19 07:47:00,32.4,24.0,28.68,SSW,202,4.0,11.0,70,0.00,,,0.00,Rainwise IP-100,2013-12-19 12:47:00,
2013-12-19 07:52:00,32.5,24.0,28.68,SSW,202,4.0,11.0,70,0.00,,,0.00,Rainwise IP-100,2013-12-19 12:52:00,
2013-12-19 07:58:00,32.7,24.0,28.68,WSW,247,8.0,11.0,70,0.00,,,0.00,Rainwise IP-100,2013-12-19 12:58:00,
2013-12-19 08:03:00,32.9,24.0,28.68,SW,225,4.0,11.0,70,0.00,,,0.00,Rainwise IP-100,2013-12-19 13:03:00,
2013-12-19 08:08:00,32.9,24.0,28.68,SSW,202,6.0,14.0,70,0.00,,,0.00,Rainwise IP-100,2013-12-19 13:08:00,
2013-12-19 08:13:00,33.2,24.0,28.68,SSW,202,4.0,12.0,70,0.00,,,0.00,Rainwise IP-100,2013-12-19 13:13:00,
2013-12-19 08:18:00,33.5,26.0,28.69,SW,225,7.0,13.0,70,0.00,,,0.00,Rainwise IP-100,2013-12-19 13:18:00,
2013-12-19 08:23:00,33.5,26.0,28.69,SW,225,5.0,9.0,70,0.00,,,0.00,Rainwise IP-100,2013-12-19 13:23:00,
2013-12-19 08:28:00,33.7,26.0,28.69,WSW,247,6.0,12.0,70,0.00,,,0.00,Rainwise IP-100,2013-12-19 13:28:00,
2013-12-19 08:33:00,34.0,26.0,28.70,SW,225,8.0,9.0,69,0.00,,,0.00,Rainwise IP-100,2013-12-19 13:33:00,
2013-12-19 08:38:00,34.3,26.0,28.70,SW,225,7.0,11.0,69,0.00,,,0.00,Rainwise IP-100,2013-12-19 13:38:00,
2013-12-19 08:43:00,34.5,26.0,28.71,SW,225,7.0,12.0,70,0.00,,,0.00,Rainwise IP-100,2013-12-19 13:43:00,
2013-12-19 08:48:00,34.9,26.0,28.72,SSW,202,7.0,12.0,70,0.00,,,0.00,Rainwise IP-100,2013-12-19 13:48:00,
2013-12-19 08:53:00,35.3,26.0,28.72,SW,225,10.0,12.0,70,0.00,,,0.00,Rainwise IP-100,2013-12-19 13:53:00,
2013-12-19 08:59:00,35.4,26.0,28.72,SW,225,9.0,10.0,71,0.00,,,0.00,Rainwise IP-100,2013-12-19 13:59:00,
2013-12-19 09:04:00,35.7,28.0,28.72,SW,225,6.0,12.0,70,0.00,,,0.00,Rainwise IP-100,2013-12-19 14:04:00,
2013-12-19 09:09:00,35.9,28.0,28.72,WSW,247,7.0,13.0,70,0.00,,,0.00,Rainwise IP-100,2013-12-19 14:09:00,
2013-12-19 09:14:00,36.3,28.0,28.73,SSW,202,8.0,12.0,70,0.00,,,0.00,Rainwise IP-100,2013-12-19 14:14:00,
2013-12-19 09:19:00,36.6,28.0,28.73,SW,225,7.0,14.0,70,0.00,,,0.00,Rainwise IP-100,2013-12-19 14:19:00,
2013-12-19 09:24:00,36.8,28.0,28.73,SW,225,6.0,12.0,70,0.00,,,0.00,Rainwise IP-100,2013-12-19 14:24:00,
2013-12-19 09:29:00,36.9,28.0,28.74,WSW,247,3.0,13.0,70,0.00,,,0.00,Rainwise IP-100,2013-12-19 14:29:00,
2013-12-19 09:34:00,37.2,28.0,28.74,WSW,247,12.0,12.0,70,0.00,,,0.00,Rainwise IP-100,2013-12-19 14:34:00,
2013-12-19 09:39:00,37.5,29.0,28.74,WSW,247,7.0,13.0,69,0.00,,,0.00,Rainwise IP-100,2013-12-19 14:39:00,
2013-12-19 09:44:00,37.6,29.0,28.75,WSW,247,7.0,14.0,69,0.00,,,0.00,Rainwise IP-100,2013-12-19 14:44:00,
2013-12-19 09:49:00,37.8,29.0,28.75,SW,225,3.0,12.0,69,0.00,,,0.00,Rainwise IP-100,2013-12-19 14:49:00,
2013-12-19 09:54:00,38.2,29.0,28.76,SW,225,13.0,13.0,71,0.00,,,0.00,Rainwise IP-100,2013-12-19 14:54:00,
2013-12-19 10:00:00,38.6,31.0,28.77,West,270,7.0,15.0,71,0.00,,,0.00,Rainwise IP-100,2013-12-19 15:00:00,
2013-12-19 10:05:00,38.9,31.0,28.77,WSW,247,8.0,14.0,71,0.00,,,0.00,Rainwise IP-100,2013-12-19 15:05:00,
2013-12-19 10:10:00,39.3,31.0,28.78,West,270,4.0,14.0,71,0.00,,,0.00,Rainwise IP-100,2013-12-19 15:10:00,
2013-12-19 10:15:00,39.5,32.0,28.78,WSW,247,8.0,19.0,71,0.06,,,0.01,Rainwise IP-100,2013-12-19 15:15:00,
2013-12-19 10:20:00,39.7,32.0,28.79,SW,225,16.0,18.0,70,0.06,,,0.01,Rainwise IP-100,2013-12-19 15:20:00,
2013-12-19 10:25:00,39.7,32.0,28.79,SW,225,6.0,18.0,71,0.00,,,0.01,Rainwise IP-100,2013-12-19 15:25:00,
2013-12-19 10:30:00,39.6,32.0,28.79,WSW,247,15.0,18.0,71,0.00,,,0.01,Rainwise IP-100,2013-12-19 15:30:00,
2013-12-19 10:35:00,39.7,32.0,28.78,SW,225,12.0,18.0,72,0.00,,,0.01,Rainwise IP-100,2013-12-19 15:35:00,
2013-12-19 10:40:00,39.9,32.0,28.78,WSW,247,9.0,18.0,71,0.00,,,0.01,Rainwise IP-100,2013-12-19 15:40:00,
2013-12-19 10:45:00,40.3,32.0,28.79,SW,225,4.0,17.0,71,0.06,,,0.02,Rainwise IP-100,2013-12-19 15:45:00,
2013-12-19 10:50:00,40.6,32.0,28.79,SW,225,9.0,14.0,70,0.06,,,0.02,Rainwise IP-100,2013-12-19 15:50:00,
2013-12-19 10:55:00,40.7,32.0,28.79,WSW,247,12.0,15.0,70,0.00,,,0.02,Rainwise IP-100,2013-12-19 15:55:00,
2013-12-19 11:01:00,40.8,32.0,28.79,SW,225,9.0,16.0,70,0.06,,,0.03,Rainwise IP-100,2013-12-19 16:01:00,
2013-12-19 11:06:00,40.9,32.0,28.79,WSW,247,4.0,14.0,70,0.06,,,0.03,Rainwise IP-100,2013-12-19 16:06:00,
2013-12-19 11:11:00,40.8,32.0,28.79,WSW,247,10.0,19.0,71,0.00,,,0.03,Rainwise IP-100,2013-12-19 16:11:00,
2013-12-19 11:16:00,40.8,33.0,28.79,WSW,247,6.0,15.0,72,0.18,,,0.06,Rainwise IP-100,2013-12-19 16:16:00,
2013-12-19 11:21:00,40.9,32.0,28.79,SW,225,8.0,14.0,71,0.24,,,0.07,Rainwise IP-100,2013-12-19 16:21:00,
2013-12-19 11:26:00,40.9,33.0,28.79,West,270,7.0,20.0,72,0.12,,,0.08,Rainwise IP-100,2013-12-19 16:26:00,
2013-12-19 11:31:00,40.9,33.0,28.79,SW,225,12.0,22.0,73,0.12,,,0.09,Rainwise IP-100,2013-12-19 16:31:00,
2013-12-19 11:36:00,40.8,33.0,28.80,WSW,247,16.0,23.0,73,0.12,,,0.10,Rainwise IP-100,2013-12-19 16:36:00,
2013-12-19 11:41:00,40.9,33.0,28.80,SW,225,8.0,24.0,73,0.12,,,0.11,Rainwise IP-100,2013-12-19 16:41:00,
2013-12-19 11:46:00,40.9,33.0,28.80,WSW,247,9.0,22.0,73,0.12,,,0.12,Rainwise IP-100,2013-12-19 16:46:00,
2013-12-19 11:51:00,40.9,33.0,28.80,West,270,18.0,19.0,73,0.12,,,0.13,Rainwise IP-100,2013-12-19 16:51:00,
2013-12-19 11:56:00,40.9,33.0,28.80,WSW,247,9.0,22.0,74,0.12,,,0.14,Rainwise IP-100,2013-12-19 16:56:00,
2013-12-19 12:02:00,41.1,33.0,28.80,WSW,247,9.0,15.0,74,0.06,,,0.15,Rainwise IP-100,2013-12-19 17:02:00,
2013-12-19 12:07:00,41.2,33.0,28.80,West,270,6.0,21.0,73,0.06,,,0.15,Rainwise IP-100,2013-12-19 17:07:00,
2013-12-19 12:12:00,41.4,33.0,28.79,WSW,247,12.0,19.0,73,0.06,,,0.16,Rainwise IP-100,2013-12-19 17:12:00,
2013-12-19 12:17:00,41.4,33.0,28.80,WSW,247,6.0,19.0,73,0.06,,,0.16,Rainwise IP-100,2013-12-19 17:17:00,
2013-12-19 12:22:00,41.3,33.0,28.80,WNW,292,5.0,16.0,73,0.00,,,0.16,Rainwise IP-100,2013-12-19 17:22:00,
2013-12-19 12:27:00,41.3,33.0,28.79,WSW,247,7.0,23.0,73,0.06,,,0.17,Rainwise IP-100,2013-12-19 17:27:00,
2013-12-19 12:32:00,41.2,33.0,28.80,SW,225,9.0,17.0,73,0.06,,,0.17,Rainwise IP-100,2013-12-19 17:32:00,
2013-12-19 12:37:00,41.3,33.0,28.79,WSW,247,13.0,16.0,73,0.06,,,0.18,Rainwise IP-100,2013-12-19 17:37:00,
2013-12-19 12:42:00,41.2,33.0,28.80,WSW,247,7.0,15.0,74,0.06,,,0.18,Rainwise IP-100,2013-12-19 17:42:00,
2013-12-19 12:47:00,41.2,33.0,28.79,WSW,247,6.0,15.0,74,0.06,,,0.19,Rainwise IP-100,2013-12-19 17:47:00,
2013-12-19 12:52:00,41.2,33.0,28.79,West,270,6.0,14.0,74,0.06,,,0.19,Rainwise IP-100,2013-12-19 17:52:00,
2013-12-19 12:57:00,41.3,33.0,28.79,SW,225,8.0,17.0,74,0.00,,,0.19,Rainwise IP-100,2013-12-19 17:57:00,
2013-12-19 13:03:00,41.1,33.0,28.80,SW,225,7.0,19.0,74,0.00,,,0.19,Rainwise IP-100,2013-12-19 18:03:00,
2013-12-19 13:08:00,41.1,33.0,28.80,WSW,247,10.0,14.0,74,0.06,,,0.20,Rainwise IP-100,2013-12-19 18:08:00,
2013-12-19 13:11:00,41.1,35.0,28.80,WSW,247,8.0,14.0,75,0.06,,,0.20,Rainwise IP-100,2013-12-19 18:11:00,
2013-12-19 13:16:00,41.0,35.0,28.80,WSW,247,9.0,17.0,75,0.06,,,0.20,Rainwise IP-100,2013-12-19 18:16:00,
2013-12-19 13:21:00,40.9,35.0,28.80,SW,225,6.0,14.0,75,0.00,,,0.20,Rainwise IP-100,2013-12-19 18:21:00,
2013-12-19 13:26:00,40.8,35.0,28.80,SW,225,7.0,14.0,76,0.00,,,0.20,Rainwise IP-100,2013-12-19 18:26:00,
2013-12-19 13:31:00,40.8,35.0,28.81,WSW,247,6.0,14.0,76,0.00,,,0.20,Rainwise IP-100,2013-12-19 18:31:00,
2013-12-19 13:36:00,40.8,35.0,28.80,WSW,247,10.0,14.0,76,0.00,,,0.20,Rainwise IP-100,2013-12-19 18:36:00,
2013-12-19 13:41:00,40.7,35.0,28.80,WSW,247,6.0,15.0,77,0.00,,,0.20,Rainwise IP-100,2013-12-19 18:41:00,
2013-12-19 13:46:00,40.7,35.0,28.80,WSW,247,6.0,14.0,77,0.00,,,0.20,Rainwise IP-100,2013-12-19 18:46:00,
2013-12-19 13:51:00,40.7,35.0,28.81,WSW,247,9.0,16.0,77,0.06,,,0.21,Rainwise IP-100,2013-12-19 18:51:00,
2013-12-19 13:56:00,40.6,35.0,28.80,SW,225,6.0,18.0,77,0.06,,,0.21,Rainwise IP-100,2013-12-19 18:56:00,
2013-12-19 14:02:00,40.6,35.0,28.81,WSW,247,7.0,13.0,78,0.00,,,0.21,Rainwise IP-100,2013-12-19 19:02:00,
2013-12-19 14:07:00,40.6,35.0,28.81,SW,225,7.0,12.0,78,0.00,,,0.21,Rainwise IP-100,2013-12-19 19:07:00,
2013-12-19 14:12:00,40.6,35.0,28.80,WSW,247,10.0,15.0,78,0.00,,,0.21,Rainwise IP-100,2013-12-19 19:12:00,
2013-12-19 14:17:00,40.5,35.0,28.80,WSW,247,7.0,15.0,78,0.00,,,0.21,Rainwise IP-100,2013-12-19 19:17:00,
2013-12-19 14:22:00,40.6,35.0,28.80,WSW,247,6.0,12.0,78,0.00,,,0.21,Rainwise IP-100,2013-12-19 19:22:00,
2013-12-19 14:27:00,40.5,35.0,28.81,WNW,292,4.0,12.0,78,0.00,,,0.21,Rainwise IP-100,2013-12-19 19:27:00,
2013-12-19 14:32:00,40.5,35.0,28.81,West,270,5.0,16.0,78,0.00,,,0.21,Rainwise IP-100,2013-12-19 19:32:00,
2013-12-19 14:37:00,40.5,35.0,28.81,SW,225,4.0,13.0,78,0.00,,,0.21,Rainwise IP-100,2013-12-19 19:37:00,
2013-12-19 14:42:00,40.4,35.0,28.81,SW,225,5.0,12.0,78,0.00,,,0.21,Rainwise IP-100,2013-12-19 19:42:00,
2013-12-19 14:47:00,40.4,35.0,28.81,SW,225,6.0,14.0,79,0.00,,,0.21,Rainwise IP-100,2013-12-19 19:47:00,
2013-12-19 14:52:00,40.4,35.0,28.81,SW,225,9.0,14.0,79,0.00,,,0.21,Rainwise IP-100,2013-12-19 19:52:00,
2013-12-19 14:57:00,40.3,35.0,28.81,SW,225,6.0,10.0,79,0.00,,,0.21,Rainwise IP-100,2013-12-19 19:57:00,
2013-12-19 15:03:00,40.3,35.0,28.82,SW,225,3.0,13.0,79,0.00,,,0.21,Rainwise IP-100,2013-12-19 20:03:00,
2013-12-19 15:08:00,40.3,35.0,28.82,WSW,247,6.0,11.0,80,0.00,,,0.21,Rainwise IP-100,2013-12-19 20:08:00,
2013-12-19 15:13:00,40.2,35.0,28.82,SW,225,4.0,12.0,80,0.00,,,0.21,Rainwise IP-100,2013-12-19 20:13:00,
2013-12-19 15:18:00,40.2,35.0,28.82,West,270,9.0,9.0,80,0.00,,,0.21,Rainwise IP-100,2013-12-19 20:18:00,
2013-12-19 15:23:00,40.1,35.0,28.82,West,270,10.0,17.0,80,0.00,,,0.21,Rainwise IP-100,2013-12-19 20:23:00,
2013-12-19 15:28:00,39.8,35.0,28.83,WSW,247,6.0,12.0,81,0.00,,,0.21,Rainwise IP-100,2013-12-19 20:28:00,
2013-12-19 15:33:00,39.8,35.0,28.83,WSW,247,5.0,9.0,81,0.00,,,0.21,Rainwise IP-100,2013-12-19 20:33:00,
2013-12-19 15:38:00,39.8,36.0,28.83,WSW,247,4.0,11.0,82,0.00,,,0.21,Rainwise IP-100,2013-12-19 20:38:00,
2013-12-19 15:43:00,39.6,36.0,28.83,SW,225,4.0,9.0,82,0.00,,,0.21,Rainwise IP-100,2013-12-19 20:43:00,
2013-12-19 15:48:00,39.6,36.0,28.83,WSW,247,6.0,9.0,82,0.00,,,0.21,Rainwise IP-100,2013-12-19 20:48:00,
2013-12-19 15:53:00,39.5,36.0,28.83,SW,225,7.0,8.0,83,0.00,,,0.21,Rainwise IP-100,2013-12-19 20:53:00,
2013-12-19 15:58:00,39.6,36.0,28.83,WSW,247,3.0,8.0,83,0.00,,,0.21,Rainwise IP-100,2013-12-19 20:58:00,
2013-12-19 16:04:00,39.4,35.0,28.83,West,270,3.0,7.0,83,0.00,,,0.21,Rainwise IP-100,2013-12-19 21:04:00,
2013-12-19 16:09:00,39.3,35.0,28.83,SW,225,4.0,7.0,84,0.00,,,0.21,Rainwise IP-100,2013-12-19 21:09:00,
2013-12-19 16:14:00,39.4,35.0,28.83,WSW,247,4.0,8.0,84,0.00,,,0.21,Rainwise IP-100,2013-12-19 21:14:00,
2013-12-19 16:19:00,39.2,35.0,28.83,WSW,247,3.0,7.0,84,0.00,,,0.21,Rainwise IP-100,2013-12-19 21:19:00,
2013-12-19 16:24:00,39.1,35.0,28.83,WSW,247,4.0,4.0,85,0.00,,,0.21,Rainwise IP-100,2013-12-19 21:24:00,
2013-12-19 16:29:00,39.0,35.0,28.82,SW,225,1.0,6.0,85,0.00,,,0.21,Rainwise IP-100,2013-12-19 21:29:00,
2013-12-19 16:34:00,38.9,35.0,28.83,West,270,1.0,6.0,85,0.00,,,0.21,Rainwise IP-100,2013-12-19 21:34:00,
2013-12-19 16:39:00,38.8,36.0,28.83,West,270,3.0,4.0,86,0.00,,,0.21,Rainwise IP-100,2013-12-19 21:39:00,
2013-12-19 16:44:00,38.8,36.0,28.83,SW,225,2.0,5.0,86,0.00,,,0.21,Rainwise IP-100,2013-12-19 21:44:00,
2013-12-19 16:49:00,38.7,36.0,28.83,WSW,247,2.0,4.0,86,0.00,,,0.21,Rainwise IP-100,2013-12-19 21:49:00,
2013-12-19 16:54:00,38.5,36.0,28.83,SW,225,2.0,3.0,87,0.00,,,0.21,Rainwise IP-100,2013-12-19 21:54:00,
2013-12-19 16:59:00,38.5,36.0,28.83,SSW,202,2.0,6.0,87,0.00,,,0.21,Rainwise IP-100,2013-12-19 21:59:00,
2013-12-19 17:05:00,38.5,36.0,28.83,SW,225,2.0,6.0,87,0.00,,,0.21,Rainwise IP-100,2013-12-19 22:05:00,
2013-12-19 17:10:00,38.4,35.0,28.83,SW,225,1.0,4.0,87,0.00,,,0.21,Rainwise IP-100,2013-12-19 22:10:00,
2013-12-19 17:15:00,38.4,35.0,28.83,SW,225,2.0,6.0,87,0.00,,,0.21,Rainwise IP-100,2013-12-19 22:15:00,
2013-12-19 17:20:00,38.2,35.0,28.83,SW,225,4.0,5.0,87,0.00,,,0.21,Rainwise IP-100,2013-12-19 22:20:00,
2013-12-19 17:25:00,38.1,35.0,28.84,WSW,247,2.0,5.0,87,0.00,,,0.21,Rainwise IP-100,2013-12-19 22:25:00,
2013-12-19 17:30:00,38.1,35.0,28.84,SW,225,2.0,5.0,88,0.00,,,0.21,Rainwise IP-100,2013-12-19 22:30:00,
2013-12-19 17:35:00,37.9,35.0,28.84,WSW,247,2.0,3.0,87,0.00,,,0.21,Rainwise IP-100,2013-12-19 22:35:00,
2013-12-19 17:40:00,37.9,35.0,28.84,WSW,247,2.0,4.0,87,0.00,,,0.21,Rainwise IP-100,2013-12-19 22:40:00,
2013-12-19 17:45:00,37.8,35.0,28.84,SW,225,2.0,3.0,88,0.00,,,0.21,Rainwise IP-100,2013-12-19 22:45:00,
2013-12-19 17:50:00,37.8,35.0,28.84,WSW,247,2.0,3.0,88,0.00,,,0.21,Rainwise IP-100,2013-12-19 22:50:00,
2013-12-19 17:55:00,37.7,35.0,28.84,SW,225,2.0,3.0,88,0.00,,,0.21,Rainwise IP-100,2013-12-19 22:55:00,
2013-12-19 18:00:00,37.7,35.0,28.84,WSW,247,1.0,4.0,88,0.00,,,0.21,Rainwise IP-100,2013-12-19 23:00:00,
2013-12-19 18:06:00,37.6,35.0,28.84,WSW,247,2.0,3.0,88,0.00,,,0.21,Rainwise IP-100,2013-12-19 23:06:00,
2013-12-19 18:11:00,37.6,35.0,28.84,WSW,247,2.0,3.0,88,0.00,,,0.21,Rainwise IP-100,2013-12-19 23:11:00,
2013-12-19 18:16:00,37.6,35.0,28.85,WSW,247,2.0,4.0,88,0.00,,,0.21,Rainwise IP-100,2013-12-19 23:16:00,
2013-12-19 18:21:00,37.5,35.0,28.85,WSW,247,2.0,4.0,88,0.00,,,0.21,Rainwise IP-100,2013-12-19 23:21:00,
2013-12-19 18:26:00,37.6,35.0,28.85,WSW,247,3.0,3.0,88,0.00,,,0.21,Rainwise IP-100,2013-12-19 23:26:00,
2013-12-19 18:31:00,37.5,35.0,28.85,WSW,247,2.0,3.0,88,0.00,,,0.21,Rainwise IP-100,2013-12-19 23:31:00,
2013-12-19 18:36:00,37.5,35.0,28.85,WSW,247,2.0,2.0,88,0.00,,,0.21,Rainwise IP-100,2013-12-19 23:36:00,
2013-12-19 18:41:00,37.3,33.0,28.85,WSW,247,0.0,2.0,88,0.00,,,0.21,Rainwise IP-100,2013-12-19 23:41:00,
2013-12-19 18:46:00,37.2,35.0,28.85,WSW,247,0.0,0.0,89,0.00,,,0.21,Rainwise IP-100,2013-12-19 23:46:00,
2013-12-19 18:51:00,37.1,35.0,28.85,WSW,247,2.0,2.0,89,0.00,,,0.21,Rainwise IP-100,2013-12-19 23:51:00,
2013-12-19 18:56:00,37.1,35.0,28.85,WSW,247,1.0,2.0,89,0.00,,,0.21,Rainwise IP-100,2013-12-19 23:56:00,
2013-12-19 19:01:00,36.9,35.0,28.85,WSW,247,0.0,2.0,89,0.00,,,0.21,Rainwise IP-100,2013-12-20 00:01:00,
2013-12-19 19:07:00,36.9,35.0,28.85,WSW,247,1.0,2.0,90,0.00,,,0.21,Rainwise IP-100,2013-12-20 00:07:00,
2013-12-19 19:12:00,37.0,35.0,28.86,WSW,247,2.0,2.0,90,0.00,,,0.21,Rainwise IP-100,2013-12-20 00:12:00,
2013-12-19 19:17:00,37.0,35.0,28.86,WSW,247,0.0,2.0,89,0.00,,,0.21,Rainwise IP-100,2013-12-20 00:17:00,
2013-12-19 19:22:00,36.9,35.0,28.86,SW,225,2.0,2.0,90,0.00,,,0.21,Rainwise IP-100,2013-12-20 00:22:00,
2013-12-19 19:27:00,36.9,35.0,28.85,SW,225,1.0,2.0,91,0.00,,,0.21,Rainwise IP-100,2013-12-20 00:27:00,
2013-12-19 19:32:00,36.8,35.0,28.86,SW,225,2.0,2.0,91,0.00,,,0.21,Rainwise IP-100,2013-12-20 00:32:00,
2013-12-19 19:37:00,36.7,35.0,28.86,SW,225,1.0,2.0,91,0.00,,,0.21,Rainwise IP-100,2013-12-20 00:37:00,
2013-12-19 19:42:00,36.7,35.0,28.86,SW,225,1.0,2.0,91,0.00,,,0.21,Rainwise IP-100,2013-12-20 00:42:00,
2013-12-19 19:47:00,36.7,35.0,28.86,SSW,202,1.0,2.0,91,0.00,,,0.21,Rainwise IP-100,2013-12-20 00:47:00,
2013-12-19 19:52:00,36.7,35.0,28.86,SSW,202,1.0,2.0,91,0.00,,,0.21,Rainwise IP-100,2013-12-20 00:52:00,
2013-12-19 19:57:00,36.7,35.0,28.86,SSW,202,2.0,2.0,91,0.00,,,0.21,Rainwise IP-100,2013-12-20 00:57:00,
2013-12-19 20:02:00,36.6,35.0,28.86,SSW,202,2.0,2.0,91,0.00,,,0.21,Rainwise IP-100,2013-12-20 01:02:00,
2013-12-19 20:08:00,36.5,35.0,28.86,South,180,2.0,2.0,92,0.00,,,0.21,Rainwise IP-100,2013-12-20 01:08:00,
2013-12-19 20:13:00,36.5,35.0,28.86,South,180,2.0,2.0,92,0.00,,,0.21,Rainwise IP-100,2013-12-20 01:13:00,
2013-12-19 20:18:00,36.4,33.0,28.86,South,180,2.0,2.0,92,0.00,,,0.21,Rainwise IP-100,2013-12-20 01:18:00,
2013-12-19 20:23:00,36.5,35.0,28.86,South,180,2.0,2.0,92,0.00,,,0.21,Rainwise IP-100,2013-12-20 01:23:00,
2013-12-19 20:28:00,36.4,33.0,28.86,South,180,1.0,2.0,92,0.00,,,0.21,Rainwise IP-100,2013-12-20 01:28:00,
2013-12-19 20:33:00,36.3,33.0,28.86,South,180,1.0,2.0,92,0.00,,,0.21,Rainwise IP-100,2013-12-20 01:33:00,
2013-12-19 20:38:00,36.3,35.0,28.85,South,180,1.0,2.0,93,0.00,,,0.21,Rainwise IP-100,2013-12-20 01:38:00,
2013-12-19 20:43:00,36.3,35.0,28.85,South,180,1.0,2.0,93,0.00,,,0.21,Rainwise IP-100,2013-12-20 01:43:00,
2013-12-19 20:48:00,36.2,35.0,28.85,South,180,2.0,2.0,93,0.00,,,0.21,Rainwise IP-100,2013-12-20 01:48:00,
2013-12-19 20:53:00,36.2,35.0,28.85,South,180,1.0,2.0,93,0.00,,,0.21,Rainwise IP-100,2013-12-20 01:53:00,
2013-12-19 20:58:00,36.2,35.0,28.85,South,180,2.0,2.0,93,0.00,,,0.21,Rainwise IP-100,2013-12-20 01:58:00,
2013-12-19 21:03:00,36.1,35.0,28.85,South,180,1.0,2.0,93,0.00,,,0.21,Rainwise IP-100,2013-12-20 02:03:00,
2013-12-19 21:09:00,36.0,35.0,28.85,South,180,2.0,2.0,93,0.00,,,0.21,Rainwise IP-100,2013-12-20 02:09:00,
2013-12-19 21:14:00,36.0,35.0,28.85,South,180,1.0,2.0,94,0.00,,,0.21,Rainwise IP-100,2013-12-20 02:14:00,
2013-12-19 21:19:00,36.0,35.0,28.85,South,180,2.0,2.0,94,0.00,,,0.21,Rainwise IP-100,2013-12-20 02:19:00,
2013-12-19 21:24:00,36.0,35.0,28.84,South,180,2.0,2.0,94,0.00,,,0.21,Rainwise IP-100,2013-12-20 02:24:00,
2013-12-19 21:29:00,35.9,35.0,28.84,South,180,1.0,2.0,94,0.00,,,0.21,Rainwise IP-100,2013-12-20 02:29:00,
2013-12-19 21:34:00,35.9,35.0,28.85,South,180,2.0,2.0,94,0.00,,,0.21,Rainwise IP-100,2013-12-20 02:34:00,
2013-12-19 21:39:00,36.2,35.0,28.84,South,180,1.0,2.0,94,0.00,,,0.21,Rainwise IP-100,2013-12-20 02:39:00,
2013-12-19 21:44:00,36.2,35.0,28.84,South,180,1.0,2.0,94,0.00,,,0.21,Rainwise IP-100,2013-12-20 02:44:00,
2013-12-19 21:49:00,36.2,35.0,28.84,South,180,2.0,2.0,94,0.00,,,0.21,Rainwise IP-100,2013-12-20 02:49:00,
2013-12-19 21:54:00,36.2,35.0,28.84,South,180,2.0,3.0,94,0.00,,,0.21,Rainwise IP-100,2013-12-20 02:54:00,
2013-12-19 21:59:00,36.2,35.0,28.84,South,180,2.0,2.0,94,0.00,,,0.21,Rainwise IP-100,2013-12-20 02:59:00,
2013-12-19 22:04:00,36.2,35.0,28.84,South,180,2.0,3.0,94,0.00,,,0.21,Rainwise IP-100,2013-12-20 03:04:00,
2013-12-19 22:10:00,36.2,35.0,28.84,South,180,1.0,2.0,94,0.00,,,0.21,Rainwise IP-100,2013-12-20 03:10:00,
2013-12-19 22:15:00,36.2,35.0,28.84,South,180,1.0,2.0,94,0.00,,,0.21,Rainwise IP-100,2013-12-20 03:15:00,
2013-12-19 22:20:00,36.2,35.0,28.84,South,180,1.0,2.0,94,0.00,,,0.21,Rainwise IP-100,2013-12-20 03:20:00,
2013-12-19 22:25:00,36.1,35.0,28.84,South,180,1.0,2.0,95,0.00,,,0.21,Rainwise IP-100,2013-12-20 03:25:00,
2013-12-19 22:30:00,36.1,35.0,28.84,South,180,1.0,2.0,95,0.00,,,0.21,Rainwise IP-100,2013-12-20 03:30:00,
2013-12-19 22:35:00,36.2,35.0,28.83,South,180,0.0,2.0,94,0.00,,,0.21,Rainwise IP-100,2013-12-20 03:35:00,
2013-12-19 22:40:00,36.0,35.0,28.83,South,180,0.0,1.0,94,0.00,,,0.21,Rainwise IP-100,2013-12-20 03:40:00,
2013-12-19 22:45:00,35.9,35.0,28.82,South,180,1.0,2.0,94,0.00,,,0.21,Rainwise IP-100,2013-12-20 03:45:00,
2013-12-19 22:50:00,35.9,35.0,28.82,South,180,1.0,2.0,95,0.00,,,0.21,Rainwise IP-100,2013-12-20 03:50:00,
2013-12-19 22:55:00,35.8,35.0,28.82,South,180,2.0,2.0,95,0.00,,,0.21,Rainwise IP-100,2013-12-20 03:55:00,
2013-12-19 23:00:00,35.8,35.0,28.82,South,180,2.0,2.0,95,0.00,,,0.21,Rainwise IP-100,2013-12-20 04:00:00,
2013-12-19 23:05:00,35.8,35.0,28.82,South,180,2.0,2.0,95,0.00,,,0.21,Rainwise IP-100,2013-12-20 04:05:00,
2013-12-19 23:11:00,35.8,35.0,28.82,South,180,2.0,2.0,95,0.00,,,0.21,Rainwise IP-100,2013-12-20 04:11:00,
2013-12-19 23:16:00,35.8,35.0,28.82,South,180,2.0,2.0,95,0.00,,,0.21,Rainwise IP-100,2013-12-20 04:16:00,
2013-12-19 23:21:00,35.8,35.0,28.82,South,180,1.0,2.0,95,0.00,,,0.21,Rainwise IP-100,2013-12-20 04:21:00,
2013-12-19 23:26:00,35.7,35.0,28.83,South,180,2.0,2.0,95,0.00,,,0.21,Rainwise IP-100,2013-12-20 04:26:00,
2013-12-19 23:31:00,35.8,35.0,28.82,South,180,1.0,2.0,95,0.00,,,0.21,Rainwise IP-100,2013-12-20 04:31:00,
2013-12-19 23:36:00,35.7,35.0,28.82,South,180,1.0,2.0,95,0.00,,,0.21,Rainwise IP-100,2013-12-20 04:36:00,
2013-12-19 23:41:00,35.5,35.0,28.82,South,180,2.0,2.0,95,0.00,,,0.21,Rainwise IP-100,2013-12-20 04:41:00,
2013-12-19 23:46:00,35.3,33.0,28.82,South,180,2.0,2.0,95,0.00,,,0.21,Rainwise IP-100,2013-12-20 04:46:00,
2013-12-19 23:51:00,35.2,33.0,28.82,South,180,2.0,2.0,95,0.00,,,0.21,Rainwise IP-100,2013-12-20 04:51:00,
2013-12-19 23:56:00,35.1,33.0,28.82,South,180,2.0,2.0,95,0.00,,,0.21,Rainwise IP-100,2013-12-20 04:56:00,